Regional Weather Roundup
Issued by NWS

Home | Current Version | Previous Version | Graphics & Text | Print | Product List | Glossary On
Versions: 1 2 3 4 5 6 7 8 9 10 11 12 13 14 15 16 17 18 19 20 21 22 23 24 25 26 27 28 29 30 31 32 33 34 35 36 37 38 39 40 41 42 43 44 45 46 47 48 49 50
000
ASUS43 KOAX 202102
RWRNE

WEATHER ROUNDUP FOR NEBRASKA
NATIONAL WEATHER SERVICE OMAHA NE
300 PM CST SAT DEC 20 2014

NOTES: SATELLITE DATA IS BEING USED TO AUGMENT CLOUD COVER ABOVE
       12000 FEET.
       "FAIR" INDICATES FEW OR NO CLOUDS BELOW 12,000 FEET WITH NO
       SIGNIFICANT WEATHER AND/OR OBSTRUCTIONS TO VISIBILITY.

  * THESE STATIONS DO NOT REPORT WEATHER SUCH AS RAIN...SNOW OR FOG.

NEZ001>004-019>022-054>056-202200-
NEBRASKA PANHANDLE

CITY           SKY/WX    TMP DP  RH WIND       PRES   REMARKS
SCOTTSBLUFF    SUNNY     45  29  53 SW3       29.92F
ALLIANCE       SUNNY     39  30  70 W6        29.91F WCI  35
CHADRON        MOSUNNY   46  30  53 CALM      29.90F
SIDNEY         MOSUNNY   46  29  51 N5        29.94F
$$

NEZ057>060-069>072-079>082-202200-
SOUTHWEST NEBRASKA

CITY           SKY/WX    TMP DP  RH WIND       PRES   REMARKS
NORTH PLATTE   CLOUDY    37  26  64 W8        29.95S WCI  31
IMPERIAL       PTSUNNY   47  28  47 W7        29.96R
MCCOOK         MOSUNNY   47  29  49 CALM      29.95F
$$

NEZ005>010-023>029-035>040-094-202200-
NORTH CENTRAL NEBRASKA

CITY           SKY/WX    TMP DP  RH WIND       PRES   REMARKS
VALENTINE      CLOUDY    40  28  62 W5        29.89F
BROKEN BOW     CLOUDY    42  33  70 SW3       29.92F
$$

NEZ041-046>049-061>064-073>077-083>087-202200-
SOUTH CENTRAL NEBRASKA

CITY           SKY/WX    TMP DP  RH WIND       PRES   REMARKS
GRAND ISLAND   MOSUNNY   36  32  85 SE6       29.99F FOG     WCI  31
HASTINGS       MOSUNNY   42  34  73 S5        29.97F
HEBRON         MOSUNNY   40  36  87 S6        30.02S
KEARNEY *      PTSUNNY   39  30  70 S8        29.98R WCI  34
$$

NEZ011>018-030>034-042>045-202200-
NORTHEAST NEBRASKA

CITY           SKY/WX    TMP DP  RH WIND       PRES   REMARKS
NORFOLK        CLOUDY    34  31  88 S6        30.01R FOG     WCI  29
BLAIR          CLOUDY    33  32  96 SE6       30.04S FOG     WCI  28
COLUMBUS *     CLOUDY    34  28  80 S8        30.04R WCI  27
TEKAMAH        CLOUDY    34  31  88 S8        30.06F FOG     WCI  27
$$

NEZ050>053-065>068-078-088>093-202200-
SOUTHEAST NEBRASKA

CITY           SKY/WX    TMP DP  RH WIND       PRES   REMARKS
LINCOLN        CLOUDY    36  32  85 S7        30.05F WCI  30
OMAHA EPPLEY   CLOUDY    34  32  92 S10       30.07F FOG     WCI  26
FALLS CITY     CLOUDY    35  32  88 SW5       30.09R FOG     WCI  31
$$

NEZ044-045-051>053-067-202200-
OMAHA AREA

CITY           SKY/WX    TMP DP  RH WIND       PRES   REMARKS
OMAHA EPPLEY   CLOUDY    34  32  92 S10       30.07F FOG     WCI  26
BLAIR          CLOUDY    33  32  96 SE6       30.04S FOG     WCI  28
OFFUTT AFB     CLOUDY    34  32  94 SE7       30.06S FOG     WCI  27
$$


USA.gov is the U.S. government's official web portal to all federal, state and local government web resources and services.